Terminal Aerodrome Forecast
Issued by NWS Cleveland, OH

Home | Current Version | Previous Version | Graphics & Text | Print | Product List | Glossary Off
Versions: 1 2 3 4 5 6 7 8 9 10 11 12 13 14 15 16

000
FTUS41 KCLE 231300 AAA
TAFMFD
TAF AMD
KMFD 231304Z 2313/2412 24006KT P6SM FEW015 BKN110
     FM231500 28008KT P6SM SCT012 OVC040
      TEMPO 2315/2318 4SM -SHRA BR OVC012
     FM231800 34010KT P6SM OVC012
     FM232030 34010KT P6SM BKN020
     FM232300 34008KT P6SM BKN040
     FM240600 36006KT P6SM SCT050=

USA.gov is the U.S. government's official web portal to all federal, state and local government web resources and services.